HODOYOSHI-4

Last updated on Fri Oct 04 2024 00:02:25 GMT+0000 (Coordinated Universal Time)

1 40011U 14033B 24277.54747235 .00005995 00000+0 70480-3 0 9995 2 40011 97.5697 121.8874 0024258 199.6492 160.3791 14.85010716556436
UTC large
Height (km)
Speed (km/s)
/
Latitude / Longitude
Inclination (degrees)
Orbital Period (minutes)
Azimuth
Elevation
Range (km)
Doppler Factor

Next 0 passes for location: London (51.5072 / 0.1276)

Sorry there are no passes over London.